Location: Champs
(48.8539°N, 2.6040°E)
Time: 17:32:45
(UTC+00:00)

DMSP 5D-2 F13 DEB - Pass Details

Date: 10 August 2022
Orbit: 710 x 775 km, 98.8° (Epoch: 23 September)

Event Time Altitude Azimuth Distance (km) Brightness Sun altitude
Exits shadow 22:54:06 64° 122° (ESE) 851 ? -24.4°
Maximum altitude 22:54:44 73° 72° (ENE) 809 ? -24.4°
Drops below altitude 10° 22:59:52 10° 349° (NNW) 2,338 ? -24.6°
Sets 23:02:13 0° 347° (NNW) 3,275 ? -24.7°
